This is the latest recevied weather packets stored in our database for station/object KR8N. If no packets are shown the sender has not sent any weather packets the latest 10 day(s).
| Time | Temp. | Humidity | Pressure | Rain* | Wind** | Luminosity | Snow |
|---|---|---|---|---|---|---|---|
| 1777966917 | 10° C | 81% | 1015.8 hPa | 0 mm | - | 0 W/m² | - |
| 1777966614 | 10° C | 80% | 1015.6 hPa | 0 mm | - | 0 W/m² | - |
| 1777966313 | 10.56° C | 80% | 1015.7 hPa | 0 mm | - | 0 W/m² | - |
| 1777966008 | 10.56° C | 77% | 1015.6 hPa | 0 mm | - | 0 W/m² | - |
| 1777965705 | 11.11° C | 75% | 1015.4 hPa | 0 mm | - | 0 W/m² | - |
| 1777965401 | 11.11° C | 74% | 1015.5 hPa | 0 mm | - | 0 W/m² | - |
| 1777965098 | 11.11° C | 74% | 1015.5 hPa | 0 mm | - | 0 W/m² | - |
| 1777964796 | 11.11° C | 74% | 1015.5 hPa | 0 mm | - | 0 W/m² | - |
| 1777964492 | 10.56° C | 75% | 1015.4 hPa | 0 mm | - | 0 W/m² | - |
| 1777964187 | 11.11° C | 75% | 1015.4 hPa | 0 mm | - | 0 W/m² | - |
| 1777963884 | 11.11° C | 75% | 1015.4 hPa | 0 mm | - | 0 W/m² | - |
| 1777963581 | 11.11° C | 74% | 1015.4 hPa | 0 mm | - | 0 W/m² | - |
| 1777963280 | 11.11° C | 75% | 1015.7 hPa | 0 mm | - | 0 W/m² | - |
| 1777962977 | 11.11° C | 74% | 1015.6 hPa | 0 mm | - | 0 W/m² | - |
| 1777962672 | 11.11° C | 74% | 1015.3 hPa | 0 mm | - | 0 W/m² | - |
| 1777962369 | 10.56° C | 74% | 1015.7 hPa | 0 mm | - | 0 W/m² | - |
| 1777962066 | 10.56° C | 75% | 1015.6 hPa | 0 mm | - | 0 W/m² | - |
| 1777961763 | 10.56° C | 75% | 1015.4 hPa | 0 mm | - | 0 W/m² | - |
| 1777961461 | 11.67° C | 72% | 1015.5 hPa | 0 mm | - | 0 W/m² | - |
| 1777961159 | 11.67° C | 68% | 1015.4 hPa | 0 mm | - | 0 W/m² | - |
| 1777960855 | 12.22° C | 67% | 1015.4 hPa | 0 mm | - | 0 W/m² | - |
| 1777960550 | 12.22° C | 66% | 1015.6 hPa | 0 mm | - | 0 W/m² | - |
| 1777960247 | 12.22° C | 65% | 1015.4 hPa | 0 mm | - | 0 W/m² | - |
| 1777959945 | 12.22° C | 66% | 1015.5 hPa | 0 mm | - | 0 W/m² | - |
| 1777959643 | 11.67° C | 68% | 1015.5 hPa | 0 mm | - | 0 W/m² | - |
* Rain latest hour (hover to see other rain measurements)
** Current wind speed in m/s (hover to see current wind gust speed)